[[{"header":{"parameterUnit":"m.s-1","parameterCategory":1,"la1":30.2991,"la2":30.254,"lo1":-89.0895,"lo2":-89.0444,"dy":0.0017,"dx":0.0017,"nx":28,"ny":28,"refTime":"2025-02-07T09:00:00:Z","depth":0,"parameterNumber":2,"parameterNumberName":"U-component_of_WINDS"},"data":[0,0,0,0,0,0,0,0,0,0,0,0,0,0,0,0,0,0,0,0,0,0,0,0,0,0,0,0,0,0,0,0,0,0,0,0,0,0,0,0,0,0,0,0,0,0,0,0,0,0,0,0,0,0,0,0,0,0,-1.1905,-1.1905,0,-1.1872,-1.1871,-1.1871,-1.1837,-1.1836,-1.1836,-1.1836,-1.1802,-1.1802,-1.1801,0,0,0,0,0,0,0,0,0,0,0,0,0,-1.1941,-1.194,-1.1905,-1.1905,-1.1904,-1.1872,-1.1871,-1.1871,-1.1837,-1.1836,-1.1836,-1.1835,-1.1802,-1.1802,-1.1801,0,0,0,0,0,0,0,0,0,0,0,0,0,-1.1918,-1.194,-1.1905,-1.1883,-1.1881,-1.1872,-1.1871,-1.1871,-1.1837,-1.1836,-1.1836,-1.1835,-1.1802,-1.1802,-1.1801,-1.1811,0,0,-1.1799,-1.1799,0,0,0,0,0,0,0,0,-1.1919,-1.1917,-1.1887,-1.1885,-1.1882,-1.1858,-1.1872,-1.1851,-1.1837,-1.1854,-1.1836,-1.1835,-1.1821,-1.1819,-1.1814,-1.1809,-1.1808,-1.1799,-1.1798,-1.1798,-1.1798,0,0,0,0,0,0,0,-1.1921,-1.1918,-1.1892,-1.1887,-1.1884,-1.1876,-1.1872,-1.1867,-1.1842,-1.1852,-1.185,-1.1846,-1.182,-1.1815,-1.1813,-1.1807,-1.1799,-1.1798,-1.1798,-1.1798,-1.1809,-1.1809,0,0,0,0,0,0,-1.1926,-1.192,-1.1893,-1.1891,-1.19,-1.1876,-1.1871,-1.1866,-1.1842,-1.1837,-1.1847,-1.1845,-1.1816,-1.1814,-1.1812,-1.1821,-1.1798,-1.1797,-1.1797,-1.1808,-1.1809,-1.181,0,0,0,0,0,0,-1.1927,-1.1924,-1.1894,-1.1905,-1.19,-1.1876,-1.1871,-1.1866,-1.1861,-1.1838,-1.1833,-1.1847,-1.1816,-1.1813,-1.1811,-1.182,-1.1797,-1.1796,-1.1807,-1.1808,-1.1809,-1.184,0,0,0,0,0,0,-1.1928,-1.1924,-1.1927,-1.1905,-1.19,-1.1894,-1.1871,-1.1866,-1.186,-1.1857,-1.1836,-1.1832,-1.1815,-1.1812,-1.1811,-1.1818,-1.1796,-1.1806,-1.1808,-1.1809,-1.1838,-1.1842,-1.1846,0,0,0,0,0,-1.1929,-1.1937,-1.1928,-1.1924,-1.1903,-1.1894,-1.1892,-1.1872,-1.1861,-1.1864,-1.1849,-1.1833,-1.1819,-1.1813,-1.181,-1.1818,-1.1806,-1.1807,-1.1809,-1.1837,-1.1842,-1.1846,0,0,0,0,0,0,-1.1961,-1.1934,-1.1923,-1.1924,-1.1912,-1.1889,-1.1892,-1.1877,-1.1868,-1.1866,-1.1842,-1.1837,-1.1839,-1.1828,-1.1821,-1.1826,-1.181,-1.1812,-1.1832,-1.1837,-1.184,-1.1842,-1.1795,0,0,0,0,0,-1.1969,-1.1964,-1.194,-1.1943,-1.1938,-1.1916,-1.1912,-1.1898,-1.1884,-1.1879,-1.1864,-1.1851,-1.1844,-1.184,-1.1833,-1.1838,-1.1832,-1.1842,-1.1845,-1.1849,-1.1849,-1.1851,-1.1855,-1.1815,-1.1815,-1.1815,0,0,-1.1983,-1.1968,-1.1966,-1.195,-1.1938,-1.1934,-1.1912,-1.1908,-1.1905,-1.1878,-1.1875,-1.1864,-1.1849,-1.1851,-1.1851,-1.1842,-1.186,-1.1851,-1.1853,-1.1852,-1.1853,-1.1857,-1.1861,-1.1816,-1.1816,-1.1816,0,0,-1.2008,-1.1996,-1.1997,-1.1986,-1.197,-1.1956,-1.1956,-1.1936,-1.1927,-1.1924,-1.1904,-1.19,-1.1889,-1.1879,-1.1872,-1.1895,-1.1879,-1.1893,-1.1911,-1.1914,-1.1917,-1.1919,-1.1927,-1.193,-1.1894,-1.1894,-1.1894,0,-1.2028,-1.202,-1.1999,-1.1997,-1.199,-1.1967,-1.1968,-1.1959,-1.1941,-1.1937,-1.1928,-1.1914,-1.1902,-1.1901,-1.1906,-1.1902,-1.1902,-1.1894,-1.1918,-1.192,-1.1923,-1.1929,-1.1932,-1.1896,-1.1896,-1.1896,-1.1896,0,-1.2046,-1.2041,-1.2044,-1.2027,-1.2021,-1.2021,-1.2,-1.1997,-1.1984,-1.1971,-1.1969,-1.1954,-1.1943,-1.1942,-1.1929,-1.194,-1.1935,-1.1922,-1.1906,-1.1928,-1.1934,-1.1937,-1.1899,-1.1898,-1.1897,-1.1897,0,0,-1.2088,-1.206,-1.2062,-1.2054,-1.2035,-1.2031,-1.203,-1.2019,-1.2016,-1.2005,-1.2004,-1.1995,-1.1984,-1.1977,-1.1963,-1.1965,-1.1983,-1.1952,-1.1951,-1.1958,-1.1993,-1.2002,-1.2005,-1.1974,-1.1974,-1.1974,-1.1994,0,-1.2108,-1.2104,-1.2086,-1.2087,-1.2082,-1.2061,-1.206,-1.2048,-1.2036,-1.2031,-1.2018,-1.2012,-1.1998,-1.1993,-1.1995,-1.1981,-1.199,-1.1979,-1.1972,-1.1972,-1.1975,-1.2008,-1.2017,-1.2037,-1.1997,-1.1997,-1.1997,0,-1.2131,-1.2121,-1.2122,-1.2103,-1.21,-1.21,-1.2089,-1.2084,-1.2071,-1.2062,-1.2055,-1.204,-1.2038,-1.2024,-1.2021,-1.2014,-1.201,-1.2003,-1.2004,-1.2001,-1.1985,-1.2006,-1.2042,-1.2045,-1.2001,-1.2001,-1.2,0,-1.216,-1.2148,-1.2146,-1.214,-1.2119,-1.2119,-1.211,-1.2096,-1.2091,-1.2082,-1.2078,-1.207,-1.2064,-1.2058,-1.2041,-1.2032,-1.204,-1.2024,-1.2033,-1.2033,-1.2034,-1.2034,-1.2069,-1.2034,-1.2034,-1.2034,-1.2034,0,-1.2184,-1.2185,-1.2159,-1.2158,-1.2159,-1.2139,-1.2141,-1.213,-1.2118,-1.2115,-1.2097,-1.2094,-1.2073,-1.2068,-1.2055,-1.2055,-1.2053,-1.2046,-1.2042,-1.2047,-1.2047,-1.2043,-1.204,-1.2035,-1.2034,-1.2034,-1.2034,0,-1.2216,-1.2199,-1.2196,-1.2176,-1.2171,-1.2173,-1.2156,-1.2155,-1.2142,-1.2139,-1.2137,-1.2118,-1.2111,-1.2094,-1.2084,-1.2075,-1.2078,-1.2072,-1.2082,-1.208,-1.2089,-1.2088,-1.2121,-1.2124,-1.2088,-1.2089,-1.2089,0,-1.2232,-1.2232,-1.2212,-1.2209,-1.2201,-1.2196,-1.219,-1.2171,-1.2167,-1.2152,-1.2153,-1.2145,-1.2138,-1.2129,-1.2114,-1.2106,-1.2099,-1.2112,-1.2098,-1.2103,-1.2098,-1.2098,-1.2098,-1.2114,-1.2115,-1.2115,-1.2115,0,-1.2261,-1.2253,-1.2246,-1.2236,-1.223,-1.2222,-1.2212,-1.221,-1.2189,-1.2185,-1.2178,-1.2173,-1.2162,-1.2155,-1.2145,-1.2136,-1.2122,-1.212,-1.2122,-1.2126,-1.2131,-1.2127,-1.2089,-1.2119,-1.2119,-1.2118,-1.2118,-1.2118,-1.2285,-1.2284,-1.227,-1.2263,-1.2254,-1.2246,-1.2243,-1.2231,-1.2225,-1.2214,-1.2204,-1.2199,-1.2187,-1.2172,-1.2164,-1.216,-1.2153,-1.2155,-1.2155,-1.2155,-1.2157,-1.2133,-1.2158,-1.2158,-1.2158,-1.2158,-1.2158,0,-1.2312,-1.2303,-1.2296,-1.2283,-1.2278,-1.2266,-1.2255,-1.2251,-1.2247,-1.2236,-1.223,-1.2222,-1.2215,-1.2201,-1.2193,-1.2192,-1.2186,-1.2191,-1.219,-1.2188,-1.2165,-1.2164,-1.2196,-1.2196,-1.2196,-1.2196,-1.2196,-1.2196,-1.2326,-1.2324,-1.2314,-1.2308,-1.2298,-1.2292,-1.2287,-1.228,-1.2271,-1.2264,-1.2258,-1.2248,-1.2236,-1.2227,-1.2221,-1.2217,-1.2214,-1.2221,-1.2215,-1.2193,-1.219,-1.2186,-1.2185,-1.2221,-1.2221,-1.2238,-1.2238,-1.2239]},{"header":{"parameterUnit":"m.s-1","parameterCategory":1,"la1":30.2991,"la2":30.254,"lo1":-89.0895,"lo2":-89.0444,"dy":0.0017,"dx":0.0017,"nx":28,"ny":28,"refTime":"2025-02-07T09:00:00:Z","depth":0,"parameterNumber":3,"parameterNumberName":"V-component_of_WINDS"},"data":[0,0,0,0,0,0,0,0,0,0,0,0,0,0,0,0,0,0,0,0,0,0,0,0,0,0,0,0,0,0,0,0,0,0,0,0,0,0,0,0,0,0,0,0,0,0,0,0,0,0,0,0,0,0,0,0,0,0,1.8924,1.8925,0,1.8952,1.8953,1.8953,1.8975,1.8975,1.8975,1.8975,1.9004,1.9004,1.9005,0,0,0,0,0,0,0,0,0,0,0,0,0,1.8892,1.8892,1.8924,1.8925,1.8925,1.8952,1.8953,1.8953,1.8975,1.8975,1.8975,1.8976,1.9003,1.9004,1.9005,0,0,0,0,0,0,0,0,0,0,0,0,0,1.8912,1.8893,1.8924,1.8939,1.8941,1.8952,1.8953,1.8953,1.8975,1.8975,1.8975,1.8976,1.9003,1.9004,1.9005,1.9003,0,0,1.9007,1.9008,0,0,0,0,0,0,0,0,1.891,1.8913,1.8937,1.8938,1.894,1.896,1.8952,1.897,1.8975,1.8962,1.8975,1.8976,1.8989,1.8991,1.8995,1.9005,1.9006,1.9007,1.9008,1.9008,1.9008,0,0,0,0,0,0,0,1.8909,1.8912,1.8935,1.8937,1.8939,1.8945,1.8948,1.8955,1.8973,1.8963,1.8965,1.8968,1.899,1.8995,1.8996,1.9006,1.9007,1.9008,1.9009,1.9009,1.9019,1.9019,0,0,0,0,0,0,1.8905,1.891,1.8934,1.8936,1.8926,1.8946,1.8949,1.8953,1.8973,1.8976,1.8967,1.8969,1.8993,1.8995,1.8997,1.8999,1.9008,1.9009,1.9009,1.902,1.9019,1.9019,0,0,0,0,0,0,1.8904,1.8907,1.8933,1.8924,1.8928,1.8946,1.8951,1.8954,1.8959,1.8976,1.898,1.8969,1.8993,1.8996,1.9003,1.9,1.9009,1.901,1.902,1.902,1.9019,1.9001,0,0,0,0,0,0,1.8903,1.8907,1.8905,1.8924,1.8928,1.8937,1.895,1.8954,1.896,1.8962,1.8979,1.8982,1.8994,1.9001,1.9003,1.9002,1.9011,1.902,1.902,1.9019,1.9002,1.9001,1.8999,0,0,0,0,0,1.8902,1.8898,1.8905,1.8908,1.8927,1.8937,1.894,1.8954,1.896,1.8959,1.8972,1.8981,1.9,1.9002,1.9004,1.9003,1.902,1.902,1.9019,1.9003,1.9001,1.8999,0,0,0,0,0,0,1.8879,1.8901,1.8909,1.8911,1.8922,1.8941,1.894,1.8951,1.896,1.8961,1.8978,1.8982,1.8987,1.8996,1.8997,1.9004,1.9012,1.9012,1.8998,1.8997,1.8995,1.8993,1.9011,0,0,0,0,0,1.8874,1.888,1.8899,1.8899,1.8905,1.8922,1.8926,1.8937,1.8949,1.8954,1.8966,1.8978,1.8987,1.8992,1.9001,1.9004,1.9009,1.9004,1.9003,1.9001,1.9001,1.9006,1.9005,1.9018,1.9018,1.9018,0,0,1.8864,1.8877,1.8879,1.8895,1.8905,1.8912,1.8925,1.8931,1.8937,1.8954,1.8962,1.8972,1.8986,1.8991,1.8994,1.8999,1.8999,1.9001,1.9,1.9,1.9006,1.9004,1.9003,1.9017,1.9017,1.9017,0,0,1.8849,1.8858,1.8861,1.8871,1.8887,1.8899,1.89,1.8918,1.8925,1.8933,1.8947,1.8955,1.8969,1.898,1.8987,1.898,1.899,1.8983,1.8974,1.8979,1.8978,1.8977,1.8976,1.8976,1.8982,1.8982,1.8982,0,1.8834,1.8845,1.8861,1.8867,1.8875,1.8892,1.8896,1.8905,1.8922,1.8928,1.8932,1.8953,1.8964,1.8973,1.8972,1.8977,1.8979,1.898,1.8976,1.8976,1.8975,1.8975,1.8975,1.8981,1.8981,1.8982,1.8982,0,1.8827,1.8835,1.8835,1.8853,1.8861,1.8865,1.8883,1.8889,1.89,1.8912,1.8921,1.8935,1.8949,1.8952,1.8961,1.8963,1.8966,1.8973,1.8981,1.8973,1.8973,1.8973,1.898,1.898,1.8981,1.8981,0,0,1.8796,1.8826,1.8826,1.8835,1.8855,1.8862,1.8868,1.8883,1.8888,1.89,1.8908,1.8921,1.8929,1.8938,1.8949,1.8953,1.8949,1.896,1.8961,1.8959,1.8955,1.895,1.895,1.8956,1.8956,1.8956,1.8955,0,1.8786,1.8799,1.8815,1.8823,1.8832,1.885,1.8857,1.887,1.8882,1.8892,1.8905,1.8915,1.8924,1.893,1.8935,1.8949,1.8949,1.8949,1.8964,1.8965,1.8961,1.8949,1.8943,1.8941,1.8955,1.8955,1.8955,0,1.8775,1.8788,1.8797,1.8819,1.8823,1.8828,1.8845,1.8853,1.887,1.8879,1.889,1.8902,1.8912,1.8919,1.8934,1.8934,1.8941,1.8949,1.895,1.8952,1.8959,1.8952,1.894,1.894,1.8954,1.8954,1.8954,0,1.8754,1.8774,1.8782,1.879,1.8815,1.8819,1.883,1.8847,1.8856,1.887,1.8876,1.889,1.8899,1.891,1.8927,1.8931,1.8941,1.8949,1.8949,1.8949,1.895,1.895,1.894,1.8954,1.8954,1.8954,1.8954,0,1.8741,1.8746,1.8774,1.8779,1.8786,1.8806,1.8813,1.8825,1.8841,1.885,1.8867,1.8875,1.8897,1.8908,1.8922,1.8933,1.8936,1.8944,1.8948,1.8943,1.8942,1.8948,1.8949,1.8954,1.8954,1.8954,1.8954,0,1.8718,1.8737,1.8748,1.8772,1.8779,1.8783,1.8804,1.8811,1.8825,1.8837,1.8841,1.8863,1.8877,1.8896,1.8915,1.8925,1.8935,1.894,1.8929,1.8932,1.8932,1.8932,1.8926,1.8927,1.8939,1.8939,1.8939,0,1.8709,1.8714,1.874,1.8747,1.8758,1.877,1.8779,1.88,1.8809,1.883,1.8835,1.8851,1.8865,1.8887,1.8905,1.8921,1.8928,1.8925,1.893,1.8926,1.8929,1.8929,1.8931,1.8923,1.8923,1.8922,1.8922,0,1.8692,1.8702,1.8714,1.8732,1.8743,1.8757,1.8772,1.8777,1.8801,1.8811,1.8826,1.8837,1.8859,1.8875,1.8894,1.8906,1.8919,1.8921,1.8922,1.8917,1.8912,1.8916,1.8927,1.8921,1.8921,1.8921,1.8921,1.8921,1.8677,1.8683,1.8703,1.8718,1.8731,1.8746,1.8754,1.877,1.8784,1.8803,1.8815,1.8831,1.885,1.8877,1.8889,1.8902,1.8906,1.8908,1.8908,1.8908,1.8908,1.8909,1.8905,1.8905,1.8905,1.8906,1.8906,0,1.8661,1.8676,1.8689,1.8711,1.8723,1.8735,1.8753,1.8762,1.8776,1.8793,1.8807,1.8827,1.8843,1.8864,1.8882,1.8889,1.8895,1.8893,1.8893,1.8896,1.8902,1.89,1.8888,1.8888,1.8888,1.8888,1.8888,1.8888,1.8655,1.8667,1.868,1.8699,1.8714,1.873,1.874,1.8754,1.8768,1.8789,1.8803,1.8817,1.8836,1.8856,1.8873,1.8878,1.8885,1.8881,1.8888,1.8894,1.8895,1.8897,1.8895,1.8882,1.8882,1.8882,1.8882,1.8882]}]]